Location: Amsterdam
(30.7274°N, 84.4357°W)
Time: 21:35:26
(UTC+00:00)

Explorer 11/Cluster Stage 4 - Pass Details

Date: 17 February 2026
Orbit: 463 x 1176 km, 28.8° (Epoch: 9 March)

Event Time Altitude Azimuth Distance (km) Brightness Sun altitude
Rises 18:29:47 0° 241° (WSW) 2,839 9.9 46.5°
Reaches altitude 10° 18:32:22 10° 233° (SW) 1,834 9.2 46.4°
Maximum altitude 18:36:12 36° 166° (SSE) 813 8.2 46.2°
Drops below altitude 10° 18:39:36 10° 98° (E) 1,636 8.3 46.0°
Sets 18:41:48 0° 89° (E) 2,484 9.0 45.8°
